TITAN 3A DEB (TRUSS), 1000

Orbit data source: Space-Track

TITAN 3A DEB (TRUSS), 1000 is space debris in LEO originally from a launch on Thu, 11 Feb 1965 UTC launched from the Air Force Eastern Test Range (AFETR). Debris objects in space refer to the collection of defunct objects orbiting the Earth. Examples of debris include non-operational satellites, rocket bodies, and fragments generated from explosions, collisions, or faulty payload assembly.

Loading next visibility...
Identifier
1000, 1965-008B
Orbit
LEO
Last TLE update
18 hours ago
Origin
Manufacturer
Martin Marietta
Mission
Spacecraft
Bus & Motor
TRANSTAGE, Unknown motor
Mass
1,950 kg wet, 1,950 kg dry
Launch date (UTC)
1965-02-11 (60 years ago)
Launch vehicle
Unknown
Launch site
Air Force Eastern Test Range (AFETR)
Object type
Payload
Rocket body
Debris
Shape & HBR
Cyl + 2 Nozzle, 4.6 m
Radar Cross Section
14.974 m², Large (>1 m²)

Expand to show TLE details & history

TLE from 18 hours ago
0 TITAN 3A DEB (TRUSS)
1 01000U 65008B   25128.58097241  .00000012  00000-0  51114-3 0  9992
2 01000  32.1406 215.4033 0012039 355.4088   4.6298  9.88890733177307
Epoch: 2025-05-08T13:56Z
Definitive object data (Epoch: 2025-05-08T13:56:36.016Z)
Latitude
0.00001°
Longitude
139.60383°
Altitude
2,778.422 km
Speed
6.604 km/s
True Right ascension
14h 21m 36s
True Declination
0° 00' 00"
Sunlit
Object was in full shadow at TLE epoch
Visualization TLE readout
Latitude
16.89796°
Longitude
-70.95126°
Altitude
2,798.298 km
Speed
6.59 km/s
Apparent Right ascension
01h 37m 02s
Apparent Declination
-6° 36' 31"
Sunlit
Object is in daylight
Visualization observer readout
Local Sidereal Time
16:03:18
Azimuth
54.404° ENE
Elevation
-43.294°
Doppler factor
1
Orbital elements
Apogee altitude
2,804.274 km
Perigee altitude
2,782.191 km
Semi-major axis
9,171.369 km
Eccentricity
0.0012039
Inclination
32.1406°
RAAN
215.4033°
Arg. of periapsis
355.4088°
True anomaly
4.64095°
Mean anomaly
4.6298°
Eccentric anomaly
4.63537°
Mean motion
2.47111 °/min
BSTAR
0.00051114
Orbital period
145.68 mins
Loading maneuver chart data...
Loading SW <> Apogee altitude chart data...
Loading historical data...
Loading historical data...
Loading historical data...
Loading historical data...
Loading historical data...
Loading historical data...
Loading historical data...
Other satellites on launch #8 in the year 1965 (1965-02-11 UTC)

TITAN 3A DEB (TRUSS) Visibility forecast

Observer location: undefined°, undefined°

Span
Click to sort rows by Start time (UTC) header in descending order
Start Az.
Max El. time (UTC)
Max El. Az.
Max El.
End time (UTC)
End Az.
30 mins2025-05-09 09:31:14.432Z231.863° WSW2025-05-09 09:46:14.432Z159.109° S38.906°2025-05-09 10:01:14.432Z89.243° E
30 mins2025-05-09 12:09:14.432Z259.205° W2025-05-09 12:24:14.432Z174.744° S42.188°2025-05-09 12:39:14.432Z106.006° ESE
27 mins2025-05-09 14:48:14.432Z269.073° W2025-05-09 15:01:14.432Z204.163° SW36.176°2025-05-09 15:15:14.432Z138.2° SSE
17 mins2025-05-09 17:29:14.432Z254.785° W2025-05-09 17:37:14.432Z222.223° SW17.66°2025-05-09 17:46:14.432Z185.711° SSW
23 mins2025-05-10 07:15:14.432Z195.978° SSW2025-05-10 07:26:14.432Z145.885° SSE27.257°2025-05-10 07:38:14.432Z92.888° ESE
|